User: anonymous   Login
Location: Asni�res
(49.1337°N, 2.3555°E)
Time: 02:38:11
(UTC+00:00)
Language:

Cosmos 1535 Rocket - Orbit

View from above orbital plane
View from above orbital plane
View from above satellite
View from above satellite

Ground track
Ground track

The orbit data is extracted from the following two-line orbital elements,

1 14680U 84010B   22020.59903088  .00000125  00000-0  11093-3 0  9995
2 14680  82.9550 237.0502 0038703  41.2036  16.0450 13.76510256906700
Epoch (UTC): 20 January 2022 14:22:36
Eccentricity: 0.0038703
inclination: 82.9550°
perigee height: 948 km
apogee height: 1005 km
right ascension of ascending node: 237.0502°
argument of perigee: 41.2036°
revolutions per day: 13.76510256
mean anomaly at epoch: 16.0450°
orbit number at epoch: 90670

The dashed part of the orbit path shows where the satellite is in the earth's shadow,  

DLR